Showing default

OTB, 44341

Orbit data source: Space-Track

OTB, 44341 is a payload satellite owned by GA-EMS (US) in LEO that was launched on Tue, 25 Jun 2019 UTC via an FALCON HEAVY launch vehicle from the Air Force Eastern Test Range (AFETR). Payload-class satellites include a variety of spacecraft equipped with specific instruments for various scientific and technological missions. These include communications satellites like Starlink; space stations such as the ISS; scientific satellites like the Hubble; Earth observation satellites from companies like Planet Labs, Umbra, and HawkEye 360; GPS; miniature CubeSats for education and research; and military/defense satellites.

Not visible in the next 10 days
Identifier
44341, 2019-036C
Orbit
LEO
Last TLE update
12 hours ago
Origin
Manufacturer
GA-EMS
Mission
Operational Commercial Tech/Misc
Bus & Motor
SSTL-150, Unknown motor
Mass
100 kg wet, 100 kg dry
Launch date (UTC)
2019-06-25 (6 years ago)
Launch vehicle
FALCON HEAVY
Launch site
Air Force Eastern Test Range (AFETR)
Object type
Payload
Rocket body
Debris
Shape & HBR
Box + 4 Pan, 3 m
Radar Cross Section
1.570 m², Large (>1 m²)

Expand to show TLE details & history

TLE from 12 hours ago
0 OTB
1 44341U 19036C   25181.89996418  .00000977  00000-0  16893-3 0  9999
2 44341  23.9981  43.9998 0011212 104.4429 255.7307 14.56172612320091
Epoch: 2025-06-30T21:35Z
TLE epoch observation values (Epoch: 2025-06-30T21:35:56.905Z)
Latitude
-0.00002°
Longitude
160.80951°
Altitude
705.452 km
Speed
7.505 km/s
True Right ascension
02h 55m 59s
True Declination
0° 00' 00"
Sunlit
Object was in daylight at epoch
Visualization orbit readout
Latitude
21.00061°
Longitude
-81.41722°
Altitude
695.306 km
Speed
7.517 km/s
Apparent Right ascension
10h 09m 02s
Apparent Declination
-7° 49' 04"
Sunlit
Object is in daylight
Visualization observer readout
Local Sidereal Time
21:17:31
Azimuth
336.809° NNW
Elevation
-55.896°
Doppler factor
1
Orbital elements
Apogee altitude
718.188 km
Perigee altitude
702.293 km
Semi-major axis
7,088.378 km
Eccentricity
0.00112
Inclination
23.9981°
RAAN
43.9998°
Arg. of periapsis
104.4429°
True anomaly
Unknown
Mean anomaly
255.7307°
Eccentric anomaly
Unknown
Mean motion
3.63683 °/min
Orbital period
98.99 mins
BSTAR
0.00016893
Loading maneuver chart data...
Loading SW <> Apogee altitude chart data...
Loading historical data...
Loading historical data...
Loading historical data...
Loading historical data...
Loading historical data...
Loading historical data...
Loading historical data...

OTB Visibility

Observer location: undefined°, undefined°

OTB is likely not visible in the next few days
Span
Click to sort rows by Start time (UTC) header in descending order
Start Az.
Max El. time (UTC)
Max El. Az.
Max El.
End time (UTC)
End Az.
|